Weather in Hutag

Mongolia     49°25′26″N   102°35′52″E
temp.,
°C
wind,
m/s
gust,
m/s
humid.,
%
clouds,
%
prec.,
mm/h
press.,
hPa
HPBL,
m
29 june, wed
wed2923:00+20sw225311 0.1 100211
02:00+17nne2261100 0.1 100313
05:00+15n22745 0.1 100411
08:00+18nne227163 0.2 1005146
11:00+23ne2349100 0.0 1004739
14:00+28ese453566 0.0 10011335
17:00+27ese6840100 0.0 9991285
20:00+24e3455100 0.0 1000105
30 june, thu
thu3023:00+15nw3488100 1.8 100465
02:00+14nnw119323 5.4 100411
05:00+13nw119238 0.0 100611
08:00+16nw117943 0.0 1006326
11:00+21ssw12565 0.0 10041057
14:00+25ssw134320 0.0 10031742
17:00+27sw223351 0.0 10012062
20:00+24ese114767 0.0 100111
1 july, fri
fri123:00+19nw215190 0.0 100211
02:00+16sw11603 0.0 100311
05:00+14sw11750 0.0 100511
08:00+19s11660 0.0 1005228
11:00+24s22480 0.0 1003682
14:00+29sw23305 0.0 10011612
17:00+30ssw022223 0.0 9992690
20:00+26se33405 0.0 99927
2 july, sat
sat223:00+20sse2252100 0.0 100111
02:00+17ssw115995 0.0 100111
05:00+16ene00618 0.0 100111
08:00+20se115188 0.0 1001171
11:00+26sse223815 0.0 1000833
14:00+29wsw123398 0.0 9971359
17:00+31nw33316 0.0 9952204
20:00+14se8994100 7.3 1006256
3 july, sun
sun323:00+14w2293100 10.5 100550
02:00+14nnw1191100 10.5 100412
05:00+13ese1192100 0.0 100510
08:00+16n3484100 0.0 1005286
11:00+18nne2371100 0.1 1005912
14:00+20ne5564100 0.3 10031297
17:00+20ene456296 0.2 10001267
20:00+17e3577100 0.4 1000510